Location: Borovka
(49.7741°N, 14.5280°E)
Time: 01:35:12
(UTC+00:00)

BlueWalker 3 - Pass Details

Date: 24 January 2026
Orbit: 451 x 461 km, 53.2° (Epoch: 13 February)

Event Time Altitude Azimuth Distance (km) Brightness Sun altitude
Rises 18:49:38 0° 264° (W) 2,455 6.6 -29.8°
Reaches altitude 10° 18:51:47 10° 269° (W) 1,583 5.4 -30.1°
Enters shadow 18:52:49 18° 275° (W) 1,186 4.5 -30.3°
